Finningley, United Kingdom
Current Conditions -  °F | °C
As of 8:50 AM on Friday 31 Oct 2014 (Local Time) from EGCN Reporting Station
Broken Clouds Broken Clouds  
Wind Chill: 61°   Ceiling: 1500
Heat Index: 61°   Visibility: 4mi
Dew Point: 57°   Wind: 10mph
Humidity: 88%   Direction: 170°S
Pressure: 29.97"   Gusts: NA
Location:  53.49°N, 0.99°W
Report Text: EGCN 310850Z 17009KT 6000 BKN015 16/14 Q1015
Loading
Personal Weather Stations






























Interactive Weather Map
Tropical Storm Tracking
New forecast layout! Learn more

10-Day Weather Forecast

Advertisements
Track Severe Weather on mobile